Hourly Weather Barsanovo

Today, 19 April, Monday

Time Temperature Precipitation Wind Pressure Humidity
00:00 +7°C° 0 mm 3 mps 759 mmHg 71%
01:00 +6°C° 0 mm 2 mps 759 mmHg 73%
02:00 +6°C° 0 mm 2 mps 759 mmHg 76%
03:00 +5°C° 0 mm 2 mps 759 mmHg 79%
04:00 +5°C° 0 mm 2 mps 759 mmHg 82%
05:00 +4°C° 0 mm 2 mps 759 mmHg 85%
06:00 +6°C° 0 mm 2 mps 760 mmHg 78%
07:00 +7°C° 0 mm 3 mps 760 mmHg 72%
08:00 +9°C° 0 mm 3 mps 760 mmHg 65%
09:00 +10°C° 0 mm 3 mps 760 mmHg 60%
10:00 +11°C° 0 mm 3 mps 760 mmHg 56%
11:00 +13°C° 0 mm 3 mps 760 mmHg 51%
12:00 +13°C° 0 mm 3 mps 759 mmHg 51%
13:00 +12°C° 0 mm 3 mps 759 mmHg 52%
14:00 +12°C° 0 mm 3 mps 759 mmHg 53%
15:00 +12°C° 0 mm 3 mps 759 mmHg 56%
16:00 +11°C° 0 mm 3 mps 759 mmHg 58%
17:00 +11°C° 0 mm 3 mps 759 mmHg 60%
18:00 +10°C° 0 mm 3 mps 759 mmHg 64%
19:00 +9°C° 0 mm 3 mps 759 mmHg 68%
20:00 +9°C° 0 mm 3 mps 759 mmHg 72%
21:00 +8°C° 0 mm 3 mps 759 mmHg 74%
22:00 +8°C° 0 mm 3 mps 759 mmHg 75%
23:00 +8°C° 0 mm 2 mps 759 mmHg 77%

Tomorrow, 20 April, Tuesday

Time Temperature Precipitation Wind Pressure Humidity
00:00 +7°C° 0 mm 2 mps 758 mmHg 77%
01:00 +7°C° 0 mm 2 mps 758 mmHg 78%
02:00 +6°C° 0 mm 2 mps 758 mmHg 78%
03:00 +6°C° 0 mm 2 mps 758 mmHg 78%
04:00 +6°C° 0 mm 2 mps 757 mmHg 77%
05:00 +6°C° 0 mm 2 mps 757 mmHg 77%
06:00 +6°C° 0 mm 2 mps 757 mmHg 72%
07:00 +7°C° 0 mm 3 mps 757 mmHg 68%
08:00 +7°C° 0 mm 3 mps 756 mmHg 64%
09:00 +7°C° 0.1 mm 3 mps 756 mmHg 65%
10:00 +7°C° 0.1 mm 3 mps 756 mmHg 66%
11:00 +6°C° 0.1 mm 4 mps 755 mmHg 68%
12:00 +7°C° 0.1 mm 3 mps 755 mmHg 66%
13:00 +8°C° 0.1 mm 3 mps 755 mmHg 63%
14:00 +8°C° 0.1 mm 3 mps 754 mmHg 61%
15:00 +8°C° 0.1 mm 3 mps 754 mmHg 63%
16:00 +8°C° 0.1 mm 3 mps 753 mmHg 64%
17:00 +8°C° 0.1 mm 3 mps 753 mmHg 65%
18:00 +5°C° 0.2 mm 3 mps 753 mmHg 74%
19:00 +5°C° 0.2 mm 2 mps 753 mmHg 83%
20:00 +4°C° 0.2 mm 2 mps 753 mmHg 92%
21:00 +4°C° 0.2 mm 2 mps 752 mmHg 93%
22:00 +4°C° 0.2 mm 2 mps 751 mmHg 94%
23:00 +5°C° 0.2 mm 1 mps 751 mmHg 95%

Day after tomorrow, 21 April, Wednesday

Time Temperature Precipitation Wind Pressure Humidity
00:00 +4°C° 0.1 mm 2 mps 750 mmHg 94%
01:00 +4°C° 0.1 mm 2 mps 750 mmHg 93%
02:00 +4°C° 0.1 mm 2 mps 749 mmHg 92%
03:00 +4°C° 0 mm 2 mps 749 mmHg 92%
04:00 +3°C° 0 mm 2 mps 748 mmHg 92%
05:00 +3°C° 0 mm 2 mps 748 mmHg 92%
06:00 +3°C° 0 mm 2 mps 747 mmHg 90%
07:00 +4°C° 0 mm 2 mps 747 mmHg 89%
08:00 +3°C° 0 mm 3 mps 746 mmHg 87%
09:00 +3°C° 0 mm 3 mps 746 mmHg 82%
10:00 +4°C° 0 mm 3 mps 745 mmHg 77%
11:00 +5°C° 0 mm 3 mps 745 mmHg 73%
12:00 +5°C° 0 mm 3 mps 745 mmHg 72%
13:00 +5°C° 0 mm 3 mps 745 mmHg 70%
14:00 +7°C° 0 mm 3 mps 744 mmHg 69%
15:00 +7°C° 0 mm 2 mps 744 mmHg 69%
16:00 +7°C° 0 mm 2 mps 744 mmHg 69%
17:00 +8°C° 0 mm 1 mps 744 mmHg 68%
18:00 +8°C° 0 mm 1 mps 744 mmHg 72%
19:00 +6°C° 0 mm 2 mps 744 mmHg 75%
20:00 +5°C° 0 mm 2 mps 744 mmHg 78%
21:00 +5°C° 0 mm 2 mps 744 mmHg 80%
22:00 +5°C° 0 mm 2 mps 744 mmHg 81%
23:00 +4°C° 0 mm 3 mps 744 mmHg 83%

22 April, Thursday

Time Temperature Precipitation Wind Pressure Humidity
00:00 +3°C° 0 mm 3 mps 745 mmHg 85%
01:00 +4°C° 0 mm 2 mps 745 mmHg 87%
02:00 +4°C° 0 mm 2 mps 745 mmHg 89%
03:00 +3°C° 0 mm 2 mps 745 mmHg 91%
04:00 +3°C° 0 mm 2 mps 745 mmHg 93%
05:00 +2°C° 0 mm 2 mps 745 mmHg 94%
06:00 +4°C° 0 mm 2 mps 746 mmHg 87%
07:00 +6°C° 0 mm 2 mps 746 mmHg 79%
08:00 +8°C° 0 mm 2 mps 746 mmHg 72%
09:00 +9°C° 0.1 mm 3 mps 746 mmHg 68%
10:00 +10°C° 0.1 mm 4 mps 746 mmHg 64%
11:00 +10°C° 0.1 mm 5 mps 746 mmHg 60%
12:00 +9°C° 0.2 mm 5 mps 747 mmHg 66%
13:00 +7°C° 0.2 mm 4 mps 747 mmHg 72%
14:00 +6°C° 0.2 mm 4 mps 748 mmHg 78%
15:00 +7°C° 0 mm 4 mps 748 mmHg 69%
16:00 +9°C° 0 mm 3 mps 748 mmHg 59%
17:00 +10°C° 0 mm 3 mps 748 mmHg 49%
18:00 +8°C° 0 mm 2 mps 748 mmHg 56%
19:00 +6°C° 0 mm 2 mps 748 mmHg 64%
20:00 +6°C° 0 mm 1 mps 749 mmHg 71%
21:00 +5°C° 0 mm 1 mps 749 mmHg 74%
22:00 +4°C° 0 mm 2 mps 749 mmHg 76%
23:00 +3°C° 0 mm 2 mps 749 mmHg 79%

23 April, Friday

Time Temperature Precipitation Wind Pressure Humidity
00:00 +3°C° 0 mm 2 mps 749 mmHg 79%
01:00 +3°C° 0 mm 2 mps 749 mmHg 79%
02:00 +3°C° 0 mm 2 mps 748 mmHg 80%
03:00 +3°C° 0 mm 2 mps 748 mmHg 82%
04:00 +2°C° 0 mm 2 mps 748 mmHg 83%
05:00 +2°C° 0 mm 2 mps 748 mmHg 85%
06:00 +2°C° 0 mm 3 mps 748 mmHg 78%
07:00 +3°C° 0 mm 3 mps 748 mmHg 71%
08:00 +4°C° 0 mm 3 mps 748 mmHg 64%
09:00 +6°C° 0 mm 4 mps 748 mmHg 57%
10:00 +7°C° 0 mm 4 mps 748 mmHg 50%
11:00 +8°C° 0 mm 4 mps 747 mmHg 44%
12:00 +8°C° 0.1 mm 4 mps 747 mmHg 46%
13:00 +8°C° 0.1 mm 4 mps 747 mmHg 48%
14:00 +7°C° 0.1 mm 4 mps 747 mmHg 50%
15:00 +7°C° 0.2 mm 4 mps 747 mmHg 54%
16:00 +6°C° 0.2 mm 4 mps 747 mmHg 58%
17:00 +6°C° 0.2 mm 4 mps 747 mmHg 62%
18:00 +4°C° 0.2 mm 3 mps 747 mmHg 72%
19:00 +3°C° 0.2 mm 3 mps 748 mmHg 81%
20:00 +3°C° 0.2 mm 2 mps 748 mmHg 90%
21:00 +1°C° 0 mm 3 mps 748 mmHg 88%
22:00 +1°C° 0 mm 3 mps 748 mmHg 86%
23:00 +1°C° 0 mm 3 mps 749 mmHg 84%

24 April, Saturday

Time Temperature Precipitation Wind Pressure Humidity
00:00 0°C° 0 mm 3 mps 749 mmHg 83%
01:00 -1°C° 0 mm 3 mps 749 mmHg 83%
02:00 -1°C° 0 mm 3 mps 749 mmHg 83%
03:00 -2°C° 0 mm 3 mps 749 mmHg 85%
04:00 -2°C° 0 mm 3 mps 749 mmHg 87%
05:00 -2°C° 0 mm 3 mps 749 mmHg 89%
06:00 -2°C° 0 mm 4 mps 749 mmHg 79%
07:00 0°C° 0 mm 4 mps 749 mmHg 70%
08:00 +1°C° 0 mm 4 mps 749 mmHg 60%
09:00 +3°C° 0.2 mm 4 mps 749 mmHg 56%
10:00 +3°C° 0.2 mm 5 mps 749 mmHg 52%
11:00 +3°C° 0.2 mm 5 mps 749 mmHg 48%
12:00 +5°C° 0.4 mm 5 mps 749 mmHg 49%
13:00 +5°C° 0.4 mm 4 mps 749 mmHg 50%
14:00 +5°C° 0.4 mm 4 mps 748 mmHg 51%
15:00 +5°C° 0.3 mm 4 mps 748 mmHg 54%
16:00 +5°C° 0.3 mm 3 mps 748 mmHg 58%
17:00 +4°C° 0.3 mm 3 mps 748 mmHg 62%
18:00 +4°C° 0.2 mm 2 mps 749 mmHg 67%
19:00 +3°C° 0.2 mm 2 mps 749 mmHg 72%
20:00 +2°C° 0.2 mm 2 mps 749 mmHg 77%
21:00 +1°C° 0 mm 2 mps 749 mmHg 80%
22:00 +1°C° 0 mm 2 mps 749 mmHg 83%
23:00 -1°C° 0 mm 2 mps 749 mmHg 85%
Show more